User: anonymous   Login
Location: Unspecified
(0.0000°N, 0.0000°E)
Time: 11:54:45
(UTC+00:00)
Language:

XW-2D - Orbit

View from above orbital plane
View from above orbital plane
View from above satellite
View from above satellite

Ground track
Ground track

The orbit data is extracted from the following two-line orbital elements,

1 40907U 15049J   18176.12868535  .00000814  00000-0  46546-4 0  9992
2 40907  97.4568 179.1703 0014553   7.3158 352.8284 15.15363432152701
Epoch (UTC): 25 June 2018 03:05:18
Eccentricity: 0.0014553
inclination: 97.4568°
perigee height: 510 km
apogee height: 530 km
right ascension of ascending node: 179.1703°
argument of perigee: 7.3158°
revolutions per day: 15.15363432
mean anomaly at epoch: 352.8284°
orbit number at epoch: 15270

The dashed part of the orbit path shows where the satellite is in the earth's shadow,  

DLR